DW3649 Weather Reports


time (UTC)temp
C
wind
direction
speed
KPH
gust
KPH
rain 1hr
cm
rain 24hr
cm
rain mn
cm
humidity
%
barometer
mb
20260507191537 20 117 0.0 0.0 0.00 0.00 0.00 37 1016.5
20260507190039 20 101 1.6 0.0 0.00 0.00 0.00 33 1016.4
20260507184535 20 121 1.6 0.0 0.00 0.00 0.00 34 1016.5
20260507183036 20 136 4.8 0.0 0.00 0.00 0.00 35 1016.3
20260507181534 20 148 3.2 0.0 0.00 0.00 0.00 39 1016.3
20260507180034 20 190 4.8 0.0 0.00 0.00 0.00 40 1016.3
20260507174546 20 121 4.8 0.0 0.00 0.00 0.00 41 1016.2
20260507173033 20 165 8.0 0.0 0.00 0.00 0.00 42 1016.2
20260507171542 21 148 8.0 0.0 0.00 0.00 0.00 38 1016.3
20260507170032 21 140 4.8 0.0 0.00 0.00 0.00 32 1015.7
20260507164531 21 175 8.0 0.0 0.00 0.00 0.00 33 1015.6
20260507163031 21 117 4.8 0.0 0.00 0.00 0.00 34 1015.7
20260507161533 21 148 6.4 0.0 0.00 0.00 0.00 36 1015.8
20260507160038 21 156 9.7 0.0 0.00 0.00 0.00 34 1015.6
20260507154529 21 141 9.7 0.0 0.00 0.00 0.00 34 1015.8
20260507153029 21 157 9.7 0.0 0.00 0.00 0.00 34 1016.0
20260507151529 21 168 8.0 0.0 0.00 0.00 0.00 35 1016.3
20260507150036 21 165 8.0 0.0 0.00 0.00 0.00 35 1016.2
20260507144528 21 136 11.3 0.0 0.00 0.00 0.00 35 1016.1
20260507143027 21 235 9.7 0.0 0.00 0.00 0.00 37 1016.2
20260507141526 21 171 11.3 0.0 0.00 0.00 0.00 34 1016.1
20260507140036 22 213 11.3 0.0 0.00 0.00 0.00 36 1015.8
20260507134525 22 142 12.9 0.0 0.00 0.00 0.00 31 1015.7
20260507133024 22 150 11.3 0.0 0.00 0.00 0.00 29 1015.6
20260507131540 22 172 12.9 0.0 0.00 0.00 0.00 32 1015.5
20260507130022 22 140 11.3 0.0 0.00 0.00 0.00 32 1015.7
20260507124522 22 158 8.0 0.0 0.00 0.00 0.00 34 1016.1
20260507123026 22 156 8.0 0.0 0.00 0.00 0.00 39 1016.2
20260507121519 22 190 11.3 0.0 0.00 0.00 0.00 38 1016.3
20260507120028 22 155 9.7 0.0 0.00 0.00 0.00 39 1016.3
20260507114551 22 209 11.3 0.0 0.00 0.00 0.00 40 1016.3
20260507113118 22 144 11.3 0.0 0.00 0.00 0.00 45 1016.5
20260507111550 21 139 9.7 0.0 0.00 0.00 0.00 54 1016.7
20260507110049 22 130 11.3 0.0 0.00 0.00 0.00 55 1016.4
20260507104557 22 209 12.9 0.0 0.00 0.00 0.00 53 1016.5
20260507103045 22 227 11.3 0.0 0.00 0.00 0.00 47 1016.0
20260507101545 22 126 8.0 0.0 0.00 0.00 0.00 45 1015.9
20260507100052 20 171 4.8 0.0 0.00 0.00 0.00 70 1016.1
20260507094540 20 168 6.4 0.0 0.00 0.00 0.00 70 1016.1
20260507093039 20 179 8.0 0.0 0.00 0.00 0.00 67 1016.2
20260507091541 20 222 8.0 0.0 0.00 0.00 0.00 65 1016.1
20260507090036 20 138 1.6 0.0 0.00 0.00 0.00 64 1016.0
20260507084548 20 156 1.6 0.0 0.00 0.00 0.00 64 1016.2
20260507083032 20 194 3.2 0.0 0.00 0.00 0.00 62 1016.2
20260507081531 20 157 4.8 0.0 0.00 0.00 0.00 60 1016.0
20260507080030 20 144 6.4 0.0 0.00 0.00 0.00 59 1016.1
20260507074528 20 169 4.8 0.0 0.00 0.00 0.00 58 1016.0
20260507073028 20 157 3.2 0.0 0.00 0.00 0.00 53 1015.8
20260507071532 19 165 4.8 0.0 0.00 0.00 0.00 55 1015.8
20260507070027 19 152 8.0 0.0 0.00 0.00 0.00 57 1016.0
20260507064525 18 188 8.0 0.0 0.00 0.00 0.00 58 1015.9
20260507063024 18 152 6.4 0.0 0.00 0.00 0.00 58 1015.8
20260507061530 18 190 8.0 0.0 0.00 0.00 0.00 57 1015.8
20260507060033 19 157 6.4 0.0 0.00 0.00 0.00 52 1015.7
20260507054533 20 79 0.0 0.0 0.00 0.00 0.00 51 1015.5
20260507053017 20 79 0.0 0.0 0.00 0.00 0.00 53 1015.0
20260507051513 18 80 0.0 0.0 0.00 0.00 0.00 55 1014.9
20260507050033 18 83 0.0 0.0 0.00 0.00 0.00 58 1014.9
20260507044516 17 90 0.0 0.0 0.00 0.00 0.00 58 1014.9
20260507043009 17 90 0.0 0.0 0.00 0.00 0.00 59 1014.9
20260507041508 16 90 0.0 0.0 0.00 0.00 0.00 62 1014.9
20260507040013 15 90 0.0 0.0 0.00 0.00 0.00 63 1015.0
20260507034509 15 90 0.0 0.0 0.00 0.00 0.00 65 1015.1
20260507033006 15 90 0.0 0.0 0.00 0.00 0.00 65 1014.9
20260507031507 15 90 0.0 0.0 0.00 0.00 0.00 66 1014.8
20260507030007 15 90 0.0 0.0 0.00 0.00 0.00 66 1014.8
20260507024504 15 90 0.0 0.0 0.00 0.00 0.00 64 1014.7
20260507023003 16 90 0.0 0.0 0.00 0.00 0.00 64 1014.7
20260507021501 16 90 0.0 0.0 0.00 0.00 0.00 62 1014.5
20260507020101 16 90 1.6 0.0 0.00 0.00 0.00 62 1014.7
20260507014600 16 90 0.0 0.0 0.00 0.00 0.00 59 1014.7
20260507013058 16 90 0.0 0.0 0.00 0.00 0.00 57 1014.5
20260507011600 16 90 0.0 0.0 0.00 0.00 0.00 55 1014.3
20260507010056 16 90 0.0 0.0 0.00 0.00 0.00 55 1014.0
20260507004555 16 90 0.0 0.0 0.00 0.00 0.00 56 1014.0
20260507003053 16 90 0.0 0.0 0.00 0.00 0.00 56 1013.8
20260507001554 16 90 0.0 0.0 0.00 0.00 0.00 56 1013.8
20260507000053 16 90 0.0 0.0 0.00 0.00 0.00 55 1014.1
20260506234603 16 90 0.0 0.0 0.00 0.00 0.00 55 1014.4
20260506233046 16 90 0.0 0.0 0.00 0.00 0.00 54 1014.5
20260506231544 17 90 0.0 0.0 0.00 0.00 0.00 53 1014.6
20260506230043 17 90 0.0 0.0 0.00 0.00 0.00 53 1014.7
20260506224545 17 90 0.0 0.0 0.00 0.00 0.00 52 1014.7
20260506223048 17 90 0.0 0.0 0.00 0.00 0.00 53 1014.7
20260506221540 17 90 0.0 0.0 0.00 0.00 0.00 53 1014.8
20260506220039 17 90 0.0 0.0 0.00 0.00 0.00 53 1014.8
20260506214540 17 90 1.6 0.0 0.00 0.00 0.00 52 1014.8
20260506213034 17 90 0.0 0.0 0.00 0.00 0.00 51 1014.9
20260506211532 18 90 0.0 0.0 0.00 0.00 0.00 51 1015.2
20260506210035 18 90 0.0 0.0 0.00 0.00 0.00 54 1015.3
20260506204545 18 90 1.6 0.0 0.00 0.00 0.00 51 1015.4
20260506203030 18 90 0.0 0.0 0.00 0.00 0.00 47 1015.4
20260506201532 18 90 0.0 0.0 0.00 0.00 0.00 46 1015.2
20260506200025 19 90 0.0 0.0 0.00 0.00 0.00 46 1015.2
20260506194523 19 90 0.0 0.0 0.00 0.00 0.00 45 1015.0
20260506193022 19 90 0.0 0.0 0.00 0.00 0.00 44 1014.8